Updated23/05/2018 07:55 
 

GeoURL
free counters
Scottish Weather Network UK Weather Network Cumulus Top Weather Sites

Peebles Weather - Advisories

Raw Data, Raw Data Expanded

Ignore low humidity and Dew Point values. Something wrong with the sensor.
Daytime temperatures are in direct sunlight so may be higher than official air temperature values.

All times are in BST (UTC+1) unless specified.

2018/05/23 06:20 EGPH 230620Z 08009KT 9999 BKN013 09/07 Q1028
8.4°C 0.0 mm 0.0 mm 0.0 mm 3.0 mph 3.8 mph 1023.9 hPa 66% X-Ray Solar Flare Level
Planetary K-Index
Planetary K-Index History
Station Warn Rain Snow Flood Wind Ltng Heat Cold Glob Moon Temp Rain 1h Rain Wed Rain 24h Wind 10m Gust Pressure Hum Proton Levels

0.259 m Waxing Gibbous Cool F1-E F:71 A:6 Kp:3 SSN:12

This Weather Widget is provided by the Met Office

METEOalarm.eu Weather warnings: Lothian & Borders

 No special awareness required

Warning data courtesy of and Copyright © EUMETNET-METEOalarm (http://www.meteoalarm.eu/).
Used with permission.
Time delays between this website and the www.meteoalarm.eu website are possible, for the most up to date information about alert levels as published by the participating National Meteorological Services please use www.meteoalarm.eu

 

XHTML 1.1 | CSS